CPA464 VHHH-RCTP

Flight info

Callsign CPA464
Flight time N/A
Altitude 35000
Route DALOL V631 ENVAR M750 TONGA TONGA1A
Aircraft A21N/M-SDE2E3FGHIRWXY/LB1

Departure

Time 2026-05-04 11:25
Airport Hong Kong International Airport (VHHH)

Arrival

Time N/A
Airport Taiwan Taoyuan International Airport (RCTP)
Time Latitude Longitude Altitude Speed Heading
2026-05-04 10:32 22.31699 113.92959 38 ft 0 kts 81°
2026-05-04 11:05 22.31729 113.92871 35 ft 0 kts 161°
2026-05-04 11:10 22.31592 113.92921 37 ft 10 kts 161°
2026-05-04 11:12 22.31595 113.92226 38 ft 18 kts 251°
2026-05-04 11:12 22.31555 113.92096 38 ft 10 kts 251°
2026-05-04 11:12 22.31542 113.92053 38 ft 7 kts 251°
2026-05-04 11:12 22.31523 113.91997 38 ft 9 kts 251°
2026-05-04 11:13 22.31500 113.91926 38 ft 11 kts 245°
2026-05-04 11:13 22.31430 113.91895 38 ft 13 kts 165°
2026-05-04 11:13 22.31339 113.91928 38 ft 15 kts 161°
2026-05-04 11:13 22.31237 113.91966 38 ft 16 kts 160°
2026-05-04 11:14 22.30921 113.92083 37 ft 14 kts 161°
2026-05-04 11:16 22.30718 113.92159 37 ft 4 kts 161°
2026-05-04 11:16 22.30682 113.92162 37 ft 7 kts 196°
2026-05-04 11:16 22.30647 113.92120 37 ft 9 kts 247°
2026-05-04 11:17 22.30622 113.92047 37 ft 12 kts 250°
2026-05-04 11:17 22.30594 113.91957 37 ft 14 kts 251°
2026-05-04 11:19 22.30292 113.91021 38 ft 24 kts 251°
2026-05-04 11:19 22.30237 113.90850 38 ft 25 kts 250°
2026-05-04 11:19 22.30178 113.90669 38 ft 26 kts 251°
2026-05-04 11:19 22.30117 113.90478 37 ft 27 kts 251°
2026-05-04 11:20 22.30053 113.90279 37 ft 29 kts 250°
2026-05-04 11:20 22.29987 113.90070 37 ft 29 kts 253°
2026-05-04 11:20 22.29941 113.89937 37 ft 19 kts 250°
2026-05-04 11:20 22.29906 113.89825 37 ft 2 kts 252°
2026-05-04 11:22 22.29657 113.89916 35 ft 10 kts 67°
2026-05-04 11:22 22.29663 113.89941 35 ft 2 kts 70°
2026-05-04 11:23 22.29667 113.89952 35 ft 0 kts 71°
2026-05-04 11:24 22.30053 113.91153 37 ft 151 kts 70°
2026-05-04 11:25 22.30446 113.92390 166 ft 188 kts 73°
2026-05-04 11:25 22.30890 113.93728 737 ft 196 kts 70°
2026-05-04 11:25 22.31393 113.95123 1304 ft 211 kts 69°
2026-05-04 11:26 22.32699 113.98361 2083 ft 246 kts 66°
2026-05-04 11:27 22.30227 114.08772 7336 ft 249 kts 173°
2026-05-04 11:28 22.28510 114.08884 8129 ft 248 kts 186°
2026-05-04 11:28 22.26795 114.08825 8928 ft 251 kts 186°
2026-05-04 11:28 22.25010 114.08775 9752 ft 255 kts 186°
2026-05-04 11:28 22.23227 114.08735 10299 ft 269 kts 186°
2026-05-04 11:29 22.21251 114.08689 10619 ft 292 kts 186°
2026-05-04 11:29 22.19155 114.08750 10902 ft 319 kts 177°
2026-05-04 11:29 22.16947 114.09473 11256 ft 345 kts 156°
2026-05-04 11:29 22.15011 114.11098 11926 ft 360 kts 135°
2026-05-04 11:31 22.06092 114.28521 16303 ft 394 kts 124°
2026-05-04 11:33 21.95911 114.46719 20194 ft 416 kts 125°
2026-05-04 11:33 21.94398 114.49384 20695 ft 419 kts 125°
2026-05-04 11:33 21.92871 114.52078 21194 ft 423 kts 124°
2026-05-04 11:34 21.91654 114.54986 21664 ft 432 kts 108°
2026-05-04 11:34 21.91063 114.58175 22169 ft 436 kts 101°
2026-05-04 11:34 21.90597 114.61418 22655 ft 440 kts 101°
2026-05-04 11:34 21.90112 114.64681 23112 ft 443 kts 101°
2026-05-04 11:35 21.89589 114.67963 23571 ft 446 kts 102°
2026-05-04 11:35 21.89041 114.71264 23959 ft 449 kts 102°
2026-05-04 11:35 21.88481 114.74587 24336 ft 452 kts 102°
2026-05-04 11:35 21.88035 114.77958 24687 ft 457 kts 93°
2026-05-04 11:36 21.88130 114.81390 25071 ft 460 kts 87°
2026-05-04 11:36 21.88355 114.84838 25435 ft 463 kts 87°
2026-05-04 11:36 21.88576 114.88309 25797 ft 466 kts 88°
2026-05-04 11:36 21.88769 114.91798 26147 ft 469 kts 88°
2026-05-04 11:37 21.88947 114.95311 26495 ft 471 kts 88°
2026-05-04 11:37 21.89113 114.98835 26843 ft 474 kts 89°
2026-05-04 11:37 21.89277 115.02391 27172 ft 477 kts 89°
2026-05-04 11:37 21.89444 115.05976 27482 ft 480 kts 89°
2026-05-04 11:38 21.89614 115.09574 27804 ft 482 kts 89°
2026-05-04 11:38 21.89784 115.13189 28123 ft 485 kts 89°
2026-05-04 11:38 21.89954 115.16825 28420 ft 487 kts 89°
2026-05-04 11:38 21.90123 115.20476 28735 ft 490 kts 89°
2026-05-04 11:39 21.90292 115.24146 29040 ft 492 kts 89°
2026-05-04 11:39 21.90460 115.27791 29337 ft 494 kts 89°
2026-05-04 11:40 21.91474 115.50241 31029 ft 504 kts 89°
2026-05-04 11:41 21.91641 115.54025 31328 ft 504 kts 89°
2026-05-04 11:41 21.91806 115.57797 31625 ft 505 kts 89°
2026-05-04 11:41 21.91965 115.61575 31917 ft 505 kts 89°
2026-05-04 11:41 21.92130 115.65361 32194 ft 506 kts 88°
2026-05-04 11:42 21.92302 115.69142 32506 ft 506 kts 88°
2026-05-04 11:42 21.92473 115.72925 32803 ft 506 kts 89°
2026-05-04 11:42 21.92634 115.76715 33069 ft 507 kts 89°
2026-05-04 11:42 21.92798 115.80529 33339 ft 508 kts 88°
2026-05-04 11:43 21.92959 115.84280 33604 ft 508 kts 88°
2026-05-04 11:43 21.93119 115.88079 33868 ft 509 kts 88°
2026-05-04 11:43 21.93280 115.91887 34113 ft 509 kts 88°
2026-05-04 11:43 21.93439 115.95686 34350 ft 509 kts 88°
2026-05-04 11:44 21.93598 115.99492 34609 ft 508 kts 88°
2026-05-04 11:44 21.93757 116.03297 34845 ft 507 kts 88°
2026-05-04 11:44 21.93910 116.07099 35060 ft 508 kts 88°
2026-05-04 11:45 21.94219 116.14704 35076 ft 506 kts 88°
2026-05-04 11:45 21.94524 116.22277 35052 ft 506 kts 88°
2026-05-04 11:46 21.94824 116.29837 35026 ft 504 kts 88°
2026-05-04 11:46 21.95132 116.37371 35033 ft 504 kts 88°
2026-05-04 11:47 21.95427 116.44917 35046 ft 504 kts 88°
2026-05-04 11:47 21.95717 116.52472 35046 ft 504 kts 88°
2026-05-04 11:48 21.96003 116.60025 35048 ft 503 kts 88°
2026-05-04 11:48 21.96287 116.67504 35053 ft 503 kts 88°
2026-05-04 11:49 21.96567 116.75027 35046 ft 503 kts 88°
2026-05-04 11:49 21.96843 116.82586 35044 ft 503 kts 88°
2026-05-04 11:50 21.97116 116.90121 35046 ft 503 kts 88°
2026-05-04 11:50 21.97388 116.97637 35045 ft 503 kts 88°
2026-05-04 11:51 21.97656 117.05178 35050 ft 503 kts 88°
2026-05-04 11:51 21.97920 117.12710 35055 ft 504 kts 89°
2026-05-04 11:52 21.98169 117.20261 35045 ft 504 kts 89°
2026-05-04 11:52 21.98426 117.27759 35037 ft 504 kts 89°
2026-05-04 11:53 21.98686 117.35301 35048 ft 504 kts 89°
2026-05-04 11:53 21.98938 117.42846 35053 ft 504 kts 89°
2026-05-04 11:55 22.10288 117.69592 35059 ft 495 kts 56°
2026-05-04 11:56 22.13869 117.75935 35057 ft 495 kts 56°
2026-05-04 11:56 22.17478 117.82300 35074 ft 497 kts 56°
2026-05-04 11:57 22.21083 117.88663 35060 ft 498 kts 56°
2026-05-04 11:57 22.24671 117.95011 35058 ft 498 kts 56°
2026-05-04 11:58 22.28274 118.01398 35064 ft 498 kts 56°
2026-05-04 11:58 22.31967 118.07723 35055 ft 497 kts 54°
2026-05-04 11:59 22.35657 118.14025 35068 ft 497 kts 55°
2026-05-04 11:59 22.39351 118.20375 35068 ft 500 kts 55°
2026-05-04 12:00 22.43008 118.26771 35066 ft 501 kts 56°
2026-05-04 12:00 22.46633 118.33193 35067 ft 501 kts 56°
2026-05-04 12:01 22.50265 118.39613 35063 ft 500 kts 56°
2026-05-04 12:02 22.62958 118.61985 35062 ft 499 kts 56°
2026-05-04 12:03 22.66593 118.68381 35055 ft 498 kts 56°
2026-05-04 12:03 22.70227 118.74777 35060 ft 498 kts 56°
2026-05-04 12:04 22.73857 118.81174 35060 ft 498 kts 56°
2026-05-04 12:04 22.76872 118.86491 35073 ft 498 kts 56°
2026-05-04 12:05 22.80497 118.92894 35077 ft 500 kts 56°
2026-05-04 12:05 22.84732 119.00376 35062 ft 500 kts 56°
2026-05-04 12:06 22.87770 119.05756 35063 ft 500 kts 56°
2026-05-04 12:06 22.91395 119.12182 35063 ft 499 kts 56°
2026-05-04 12:07 22.95025 119.18616 35061 ft 499 kts 56°
2026-05-04 12:07 22.98633 119.25015 35050 ft 500 kts 56°
2026-05-04 12:08 23.02258 119.31467 35075 ft 502 kts 56°
2026-05-04 12:08 23.05897 119.37951 35059 ft 503 kts 56°
2026-05-04 12:09 23.09539 119.44441 35056 ft 503 kts 56°
2026-05-04 12:09 23.13167 119.50922 35051 ft 503 kts 56°
2026-05-04 12:10 23.16995 119.57259 35038 ft 498 kts 46°
2026-05-04 12:10 23.19418 119.59909 35041 ft 491 kts 34°
2026-05-04 12:10 23.22193 119.62015 35073 ft 484 kts 25°
2026-05-04 12:11 23.28014 119.65619 35055 ft 484 kts 23°
2026-05-04 12:11 23.33866 119.69255 35041 ft 482 kts 24°
2026-05-04 12:12 23.36747 119.71070 34416 ft 481 kts 24°
2026-05-04 12:12 23.39684 119.72919 33362 ft 491 kts 24°
2026-05-04 12:12 23.42558 119.74731 32723 ft 490 kts 24°
2026-05-04 12:12 23.45481 119.76581 32235 ft 484 kts 24°
2026-05-04 12:13 23.48378 119.78444 31743 ft 481 kts 26°
2026-05-04 12:14 23.67740 119.91773 28089 ft 462 kts 27°
2026-05-04 12:15 23.70416 119.93619 27598 ft 459 kts 27°
2026-05-04 12:15 23.73115 119.95481 27092 ft 457 kts 27°
2026-05-04 12:15 23.75804 119.97333 26576 ft 455 kts 27°
2026-05-04 12:15 23.78467 119.99170 26060 ft 454 kts 27°
2026-05-04 12:16 23.81125 120.01008 25558 ft 449 kts 27°
2026-05-04 12:16 23.83757 120.02831 25067 ft 445 kts 27°
2026-05-04 12:16 23.86366 120.04638 24553 ft 441 kts 27°
2026-05-04 12:16 23.88940 120.06424 24037 ft 437 kts 27°
2026-05-04 12:17 23.91506 120.08204 23529 ft 433 kts 27°
2026-05-04 12:17 23.94038 120.09958 22967 ft 429 kts 27°
2026-05-04 12:17 23.96549 120.11696 22451 ft 424 kts 27°
2026-05-04 12:17 23.99027 120.13414 21926 ft 420 kts 27°
2026-05-04 12:18 24.01454 120.15099 21434 ft 415 kts 27°
2026-05-04 12:18 24.03882 120.16784 20945 ft 411 kts 27°
2026-05-04 12:18 24.06281 120.18450 20463 ft 407 kts 27°
2026-05-04 12:18 24.08658 120.20101 20012 ft 403 kts 27°
2026-05-04 12:19 24.11019 120.21742 19580 ft 399 kts 27°
2026-05-04 12:19 24.13351 120.23361 19153 ft 395 kts 27°
2026-05-04 12:19 24.15652 120.24962 18736 ft 391 kts 27°
2026-05-04 12:19 24.17947 120.26559 18306 ft 388 kts 27°
2026-05-04 12:20 24.20202 120.28131 17867 ft 384 kts 27°
2026-05-04 12:20 24.22449 120.29698 17426 ft 379 kts 27°
2026-05-04 12:20 24.24667 120.31249 17013 ft 375 kts 27°
2026-05-04 12:20 24.26849 120.32785 16612 ft 371 kts 27°
2026-05-04 12:21 24.29005 120.34298 16239 ft 367 kts 27°
2026-05-04 12:21 24.31163 120.35791 15881 ft 366 kts 27°
2026-05-04 12:21 24.33292 120.37267 15531 ft 366 kts 27°
2026-05-04 12:21 24.35467 120.38782 15171 ft 366 kts 27°
2026-05-04 12:22 24.37593 120.40266 14791 ft 367 kts 27°
2026-05-04 12:22 24.39775 120.41792 14401 ft 368 kts 28°
2026-05-04 12:22 24.41907 120.43283 14045 ft 368 kts 28°
2026-05-04 12:22 24.44076 120.44798 13662 ft 369 kts 28°
2026-05-04 12:23 24.46242 120.46315 13255 ft 369 kts 28°
2026-05-04 12:23 24.48394 120.47823 12870 ft 364 kts 28°
2026-05-04 12:23 24.50519 120.49315 12491 ft 359 kts 28°
2026-05-04 12:23 24.52607 120.50779 12102 ft 354 kts 28°
2026-05-04 12:24 24.54652 120.52214 11728 ft 350 kts 28°
2026-05-04 12:24 24.56700 120.53649 11327 ft 347 kts 29°
2026-05-04 12:24 24.58722 120.55069 10942 ft 343 kts 29°
2026-05-04 12:24 24.60722 120.56473 10588 ft 339 kts 28°
2026-05-04 12:25 24.62689 120.57848 10374 ft 330 kts 29°
2026-05-04 12:25 24.64597 120.59188 10199 ft 321 kts 29°
2026-05-04 12:25 24.66458 120.60498 9966 ft 314 kts 28°
2026-05-04 12:25 24.68217 120.61927 9597 ft 314 kts 38°
2026-05-04 12:26 24.69861 120.63529 9222 ft 315 kts 39°
2026-05-04 12:26 24.71486 120.65143 8914 ft 314 kts 40°
2026-05-04 12:26 24.73103 120.66747 8608 ft 312 kts 40°
2026-05-04 12:26 24.74695 120.68325 8282 ft 311 kts 39°
2026-05-04 12:27 24.76297 120.69908 7954 ft 310 kts 39°
2026-05-04 12:27 24.77890 120.71481 7667 ft 306 kts 39°
2026-05-04 12:27 24.79420 120.72989 7365 ft 302 kts 40°
2026-05-04 12:27 24.80956 120.74496 7056 ft 299 kts 40°
2026-05-04 12:28 24.82500 120.76008 6724 ft 297 kts 40°
2026-05-04 12:28 24.84070 120.77548 6384 ft 295 kts 40°
2026-05-04 12:28 24.85595 120.79048 6068 ft 292 kts 41°
2026-05-04 12:28 24.87108 120.80540 5738 ft 290 kts 41°
2026-05-04 12:29 24.88608 120.82015 5418 ft 290 kts 40°
2026-05-04 12:29 24.90108 120.83493 5117 ft 288 kts 41°
2026-05-04 12:29 24.91395 120.85155 4830 ft 283 kts 62°
2026-05-04 12:29 24.91904 120.87210 4542 ft 276 kts 86°
2026-05-04 12:30 24.91835 120.89296 4301 ft 269 kts 95°
2026-05-04 12:30 24.91683 120.91319 4102 ft 261 kts 94°
2026-05-04 12:30 24.91561 120.93252 3950 ft 251 kts 92°
2026-05-04 12:30 24.91456 120.95118 3907 ft 237 kts 92°
2026-05-04 12:31 24.91362 120.96879 3899 ft 222 kts 95°
2026-05-04 12:31 24.91270 120.98564 3920 ft 220 kts 94°
2026-05-04 12:31 24.91185 121.00252 3943 ft 221 kts 94°
2026-05-04 12:31 24.91100 121.01942 3954 ft 221 kts 94°
2026-05-04 12:32 24.91290 121.03612 3939 ft 219 kts 67°
2026-05-04 12:32 24.93132 121.06150 3547 ft 202 kts 46°
2026-05-04 12:32 24.94096 121.07207 3451 ft 187 kts 48°
2026-05-04 12:33 24.94934 121.08235 3326 ft 175 kts 51°
2026-05-04 12:33 24.95716 121.09210 3157 ft 165 kts 53°
2026-05-04 12:33 24.96447 121.10133 2961 ft 154 kts 53°
2026-05-04 12:33 24.97114 121.10976 2805 ft 139 kts 53°
2026-05-04 12:34 24.97747 121.11778 2613 ft 138 kts 54°
2026-05-04 12:34 24.98359 121.12552 2450 ft 130 kts 55°
2026-05-04 12:34 24.98941 121.13289 2295 ft 120 kts 54°
2026-05-04 12:34 24.99476 121.13966 2158 ft 116 kts 54°
2026-05-04 12:35 24.99994 121.14625 2002 ft 118 kts 56°
2026-05-04 12:35 25.00532 121.15305 1845 ft 117 kts 56°
2026-05-04 12:35 25.01070 121.15986 1681 ft 119 kts 54°
2026-05-04 12:35 25.01612 121.16672 1524 ft 118 kts 53°
2026-05-04 12:36 25.02147 121.17350 1372 ft 116 kts 53°
2026-05-04 12:36 25.02662 121.18002 1228 ft 111 kts 52°
2026-05-04 12:36 25.03163 121.18638 1072 ft 111 kts 51°
2026-05-04 12:36 25.03680 121.19293 903 ft 114 kts 51°
2026-05-04 12:37 25.04196 121.19948 744 ft 115 kts 52°
2026-05-04 12:37 25.04696 121.20582 592 ft 116 kts 51°
2026-05-04 12:37 25.05213 121.21235 421 ft 110 kts 51°
2026-05-04 12:37 25.05733 121.21882 254 ft 121 kts 49°
2026-05-04 12:38 25.06247 121.22517 118 ft 105 kts 51°
2026-05-04 12:38 25.06651 121.22865 176 ft 112 kts 41°